KE9LZ-9 Weather Reports


time (UTC)temp
F
wind
direction
speed
knots
gust
knots
rain 1hr
in
rain 24hr
in
rain mn
in
humidity
%
barometer
mb
20260505112004 35 269 0.9 4.3 0.00 0.00 0.00 68 1004.7
20260505111004 34 284 0.9 1.7 0.00 0.00 0.00 70 1004.5
20260505102004 33 330 0.9 1.7 0.00 0.00 0.00 68 1004.0
20260505101004 35 301 0.0 2.6 0.00 0.00 0.00 65 1004.1
20260505100003 34 289 1.7 1.7 0.00 0.00 0.00 66 1003.9
20260505095003 34 321 0.9 1.7 0.00 0.00 0.00 66 1003.7
20260505093004 36 308 0.9 2.6 0.00 0.00 0.00 62 1003.3
20260505092004 36 306 0.9 1.7 0.00 0.00 0.00 62 1003.3
20260505091004 37 292 0.9 4.3 0.00 0.00 0.00 61 1003.2
20260505090003 37 271 0.9 1.7 0.00 0.00 0.00 60 1003.2
20260505085004 37 278 0.9 2.6 0.00 0.00 0.00 59 1002.9
20260505084004 38 317 0.9 1.7 0.00 0.00 0.00 59 1002.9
20260505083003 39 308 0.9 1.7 0.00 0.00 0.00 56 1002.8
20260505082003 39 349 0.9 0.9 0.00 0.00 0.00 55 1002.9
20260505080004 41 292 0.9 2.6 0.00 0.00 0.00 51 1002.7
20260505075003 41 314 0.0 2.6 0.00 0.00 0.00 51 1002.8
20260505074004 41 305 0.9 4.3 0.00 0.00 0.00 50 1002.7
20260505073004 41 293 1.7 2.6 0.00 0.00 0.00 50 1002.7
20260505072004 41 24 0.9 2.6 0.00 0.00 0.00 51 1002.8
20260505071004 42 299 0.9 2.6 0.00 0.00 0.00 49 1002.9
20260505070004 42 308 2.6 5.2 0.00 0.00 0.00 49 1002.9
20260505065003 42 304 2.6 5.2 0.00 0.00 0.00 49 1002.8
20260505064004 42 342 1.7 7.8 0.00 0.00 0.00 49 1002.7
20260505063004 43 334 2.6 7.8 0.00 0.00 0.00 48 1002.7
20260505061004 43 294 1.7 4.3 0.00 0.00 0.00 49 1002.8
20260505060004 44 278 0.9 6.1 0.00 0.00 0.00 48 1002.6
20260505055004 44 279 3.5 12.2 0.00 0.00 0.00 47 1002.5
20260505054004 44 265 2.6 13.0 0.00 0.00 0.00 47 1002.5
20260505053004 45 296 5.2 13.0 0.00 0.00 0.00 46 1002.4
20260505052003 45 319 2.6 8.7 0.00 0.00 0.00 48 1002.4
20260505051004 46 275 4.3 7.0 0.00 0.00 0.00 50 1002.1
20260505041003 47 17 2.6 11.3 0.00 0.00 0.00 51 1001.0
20260505040005 47 343 2.6 10.4 0.00 0.00 0.00 50 1000.5
20260505035004 47 4 0.9 4.3 0.00 0.00 0.00 49 1000.2
20260505034004 48 310 2.6 6.1 0.00 0.00 0.00 48 1000.1
20260505031004 49 338 1.7 10.4 0.00 0.00 0.00 49 999.9
20260505030004 49 342 1.7 6.1 0.00 0.00 0.00 48 999.8
20260505024004 50 0 0.9 5.2 0.00 0.00 0.00 48 999.8
20260505023004 51 86 1.7 8.7 0.00 0.00 0.00 47 999.3
20260505022003 51 332 2.6 10.4 0.00 0.00 0.00 48 999.3
20260505021004 52 351 1.7 8.7 0.00 0.00 0.00 47 999.1
20260505020004 53 329 2.6 10.4 0.00 0.00 0.00 46 998.8
20260505015004 53 16 1.7 7.8 0.00 0.00 0.00 46 998.3
20260505013004 55 343 4.3 8.7 0.00 0.00 0.00 44 997.9
20260505012004 56 6 1.7 6.1 0.00 0.00 0.00 44 997.7
20260505011004 57 341 4.3 6.1 0.00 0.00 0.00 43 997.4
20260505004003 61 329 1.7 13.9 0.00 0.00 0.00 38 996.3
20260505002004 62 309 4.3 8.7 0.00 0.00 0.00 35 995.7
20260505001003 63 321 4.3 20.0 0.00 0.00 0.00 35 995.5
20260505000004 63 321 4.3 13.0 0.00 0.00 0.00 34 995.5
20260504235003 64 270 6.1 12.2 0.00 0.00 0.00 33 995.5
20260504234004 64 307 4.3 13.0 0.00 0.00 0.00 33 995.4
20260504233004 65 267 7.8 14.8 0.00 0.00 0.00 32 995.2
20260504231004 66 318 6.1 14.8 0.00 0.00 0.00 30 995.0
20260504230004 67 327 5.2 13.9 0.00 0.00 0.00 29 994.9
20260504225004 66 284 7.0 21.7 0.00 0.00 0.00 30 995.1
20260504221004 68 289 3.5 12.2 0.00 0.00 0.00 29 994.4
20260504220004 70 278 6.1 17.4 0.00 0.00 0.00 26 994.3
20260504215004 68 257 3.5 11.3 0.00 0.00 0.00 27 994.1
20260504214003 68 278 4.3 18.2 0.00 0.00 0.00 27 994.0
20260504213004 69 283 7.8 14.8 0.00 0.00 0.00 26 993.8
20260504212004 70 17 3.5 15.6 0.00 0.01 0.00 25 993.4
20260504211004 70 278 5.2 13.0 0.00 0.01 0.00 24 993.4
20260504210004 71 277 7.8 17.4 0.00 0.01 0.00 27 993.4
20260504205004 71 248 6.1 17.4 0.00 0.01 0.00 27 993.0
20260504204004 71 282 4.3 19.1 0.00 0.01 0.00 28 993.1
20260504203004 71 284 5.2 19.1 0.00 0.01 0.00 29 993.1
20260504202004 71 258 5.2 14.8 0.00 0.01 0.00 26 993.1
20260504201004 70 260 8.7 20.9 0.00 0.01 0.00 25 993.1
20260504200004 71 266 10.4 22.6 0.00 0.01 0.00 24 993.3
20260504195004 72 259 8.7 19.1 0.00 0.01 0.00 24 993.0
20260504194004 72 249 7.8 22.6 0.00 0.01 0.00 25 992.9
20260504193005 72 265 5.2 20.0 0.00 0.01 0.00 30 992.8
20260504185004 72 263 8.7 20.9 0.00 0.01 0.00 32 992.4
20260504184004 73 305 5.2 25.2 0.00 0.01 0.00 33 992.6
20260504183003 72 273 5.2 13.9 0.00 0.01 0.00 35 992.5
20260504182003 72 259 6.1 19.1 0.00 0.01 0.00 35 992.4
20260504181004 72 282 8.7 21.7 0.00 0.01 0.00 34 992.4
20260504180004 72 258 7.8 19.1 0.00 0.01 0.00 35 992.2
20260504175003 71 261 10.4 19.1 0.00 0.01 0.00 36 992.3
20260504174004 71 263 5.2 18.2 0.00 0.01 0.00 36 992.5
20260504173004 72 259 6.1 20.0 0.00 0.01 0.00 36 992.5
20260504172004 71 282 7.0 17.4 0.00 0.01 0.00 37 992.6
20260504171004 71 259 7.8 17.4 0.00 0.01 0.00 36 992.6
20260504151004 67 250 5.2 14.8 0.00 0.01 0.00 38 992.6
20260504141004 58 255 4.3 8.7 0.00 0.01 0.00 49 994.2